Date,TemperatureHighF,TemperatureAvgF,TemperatureLowF,DewpointHighF,DewpointAvgF,DewpointLowF,HumidityHigh,HumidityAvg,HumidityLow,PressureMaxIn,PressureMinIn,WindSpeedMaxMPH,WindSpeedAvgMPH,GustSpeedMaxMPH,PrecipitationSumIn
2013-1-1,50.5,49.3,46.9,46.1,38.9,24.1,86,70,39,30.03,29.84,3,1,0,0.55
2013-1-2,56.1,49.7,45.5,47.0,43.5,39.4,87,79,64,30.05,29.79,2,0,0,0.11
2013-1-3,45.7,41.2,29.5,39.2,35.2,24.4,82,79,74,30.19,30.00,2,0,0,0.00
2013-1-4,53.8,36.2,24.1,30.6,20.2,13.8,84,57,22,30.27,30.11,5,1,0,0.00
2013-1-5,51.4,36.5,22.3,32.6,21.5,16.3,81,58,26,30.30,30.12,3,0,0,0.00
2013-1-6,57.6,45.5,38.3,39.2,34.6,26.4,80,66,46,30.13,29.92,3,1,0,0.01
2013-1-7,54.1,37.8,26.6,29.6,24.8,21.4,83,63,28,30.31,30.09,3,0,0,0.00
2013-1-8,54.0,40.5,26.4,36.8,29.7,20.8,82,67,45,30.34,30.22,2,0,0,0.00
2013-1-9,65.7,53.4,44.2,49.1,43.0,36.3,81,69,49,30.32,30.22,2,0,0,0.00
2013-1-10,70.3,56.3,42.3,49.7,45.5,37.5,86,69,46,30.34,30.18,3,1,0,0.00
2013-1-11,55.9,51.0,49.6,49.9,46.5,45.2,86,85,80,30.18,29.99,3,0,0,0.33
2013-1-12,73.9,59.9,50.2,61.5,53.6,46.2,88,81,53,30.01,29.91,2,0,0,0.00
2013-1-13,73.6,60.8,52.9,59.6,54.2,49.0,88,80,58,29.98,29.88,4,1,0,0.00
2013-1-14,67.6,62.0,55.0,62.6,57.9,50.9,88,87,82,29.96,29.87,2,0,0,0.20
2013-1-15,58.6,51.5,44.4,53.8,47.2,39.9,87,85,84,29.98,29.87,3,1,0,0.12
2013-1-16,51.8,47.7,43.9,47.2,43.8,39.9,87,86,83,29.89,29.80,3,0,0,0.35
2013-1-17,52.9,47.4,35.2,49.7,43.8,30.9,89,87,84,30.03,29.57,4,1,0,3.49
2013-1-18,52.9,37.5,29.3,34.6,27.2,22.3,86,70,30,30.34,30.05,3,0,0,0.00
2013-1-19,56.7,37.3,25.0,29.7,23.9,16.3,82,63,21,30.33,30.02,4,0,0,0.00
2013-1-20,65.3,43.9,29.1,35.8,27.7,22.5,84,59,21,30.02,29.86,3,0,0,0.00
2013-1-21,63.3,42.9,28.0,32.2,22.0,4.5,82,51,13,29.92,29.76,3,1,0,0.00
2013-1-22,47.1,33.8,25.5,22.2,9.2,-7.3,73,41,12,30.09,29.86,5,1,0,0.00
2013-1-23,51.1,35.3,20.1,24.6,16.3,3.4,78,50,21,30.19,29.90,4,1,0,0.00
2013-1-24,53.1,40.3,26.8,29.8,8.8,-45.5,79,37,1,30.33,29.84,5,1,0,0.00
2013-1-25,28.8,26.7,21.7,22.8,13.9,2.3,79,59,35,30.36,29.94,3,1,0,0.00
2013-1-26,50.5,35.2,26.1,34.0,27.2,20.2,83,74,46,30.18,29.93,2,0,0,0.08
2013-1-27,48.6,36.4,25.9,30.1,25.2,20.8,83,65,41,30.40,30.18,3,0,0,0.00
2013-1-28,51.8,44.8,39.6,43.4,32.5,25.2,82,62,51,30.31,30.10,3,1,0,0.00
2013-1-29,72.3,57.4,40.8,56.5,48.6,36.3,88,74,56,30.10,29.84,4,1,0,0.00
2013-1-30,72.0,64.4,48.0,60.5,56.6,43.0,87,76,62,29.84,29.29,9,3,0,1.61
2013-1-31,48.0,41.7,35.6,43.1,31.0,19.3,83,67,38,29.79,29.41,5,2,0,0.00
2013-2-1,43.2,32.6,23.9,13.2,3.0,-11.8,63,32,9,30.20,30.09,3,0,0,0.00
2013-2-2,50.0,33.5,20.1,33.2,15.4,-2.0,79,54,12,30.22,29.88,5,1,0,0.00
2013-2-3,57.4,41.6,28.9,32.9,24.9,10.2,83,56,15,29.87,29.69,8,2,0,0.00
2013-2-4,52.7,39.9,27.1,25.6,19.9,16.4,74,47,25,29.98,29.84,3,1,0,0.00
2013-2-5,65.8,49.3,35.1,41.6,32.4,25.0,80,54,34,29.84,29.73,4,1,0,0.00
2013-2-6,67.5,48.3,32.4,37.2,26.2,9.0,85,52,11,30.02,29.82,5,1,0,0.00
2013-2-7,47.5,42.1,37.9,37.1,31.6,23.1,85,68,46,30.10,29.83,4,1,0,0.92
2013-2-8,61.5,47.9,37.8,44.7,35.0,24.0,86,64,34,29.96,29.72,5,1,0,0.00
2013-2-9,61.3,41.5,27.0,29.2,22.1,8.6,82,54,13,30.16,29.94,3,0,0,0.00
2013-2-10,59.7,45.4,32.2,43.8,30.3,18.9,84,61,22,30.28,30.00,4,1,0,0.37
2013-2-11,57.9,50.9,45.5,53.4,46.9,41.0,87,86,84,29.99,29.78,3,0,0,0.11
2013-2-12,63.1,51.1,41.4,46.3,35.1,22.5,87,60,21,29.93,29.73,4,0,0,0.14
2013-2-13,50.0,45.7,38.7,43.7,40.1,30.4,86,81,67,29.73,29.50,4,1,0,0.07
2013-2-14,55.6,40.1,27.9,33.1,28.4,22.8,84,66,37,29.91,29.72,3,0,0,0.00
2013-2-15,65.1,45.1,27.9,35.6,27.3,21.8,84,56,19,29.94,29.76,4,1,0,0.00
2013-2-16,45.9,36.6,26.6,32.0,27.0,15.7,81,68,53,29.86,29.68,3,0,0,0.01
2013-2-17,47.1,31.9,21.6,16.8,8.9,-9.4,71,43,10,30.10,29.86,5,1,0,0.35
2013-2-18,59.0,37.4,20.5,24.0,17.3,12.7,79,50,16,30.22,30.05,4,1,0,0.00
2013-2-19,52.7,42.1,32.4,42.2,31.2,19.9,84,66,42,30.05,29.72,4,1,0,0.23
2013-2-20,57.2,41.2,28.4,24.7,11.3,-6.8,77,37,7,29.96,29.87,4,1,0,0.00
2013-2-21,62.2,43.0,25.3,37.3,15.1,-4.5,76,43,7,30.07,29.90,3,0,0,0.01
2013-2-22,43.7,40.3,38.8,36.6,35.5,34.7,85,83,72,30.11,29.93,3,1,0,0.39
2013-2-23,46.4,41.9,38.3,40.9,37.5,34.4,86,84,79,29.97,29.67,2,0,0,0.38
2013-2-24,69.3,51.2,39.7,41.5,33.3,11.7,87,60,12,29.83,29.69,3,0,0,0.00
2013-2-25,48.9,42.1,34.9,31.3,25.8,22.6,80,53,39,29.99,29.82,4,1,0,0.00
2013-2-26,41.5,37.8,33.3,37.9,33.3,28.2,87,84,71,29.89,29.42,3,1,0,1.08
2013-2-27,60.1,47.1,34.9,36.9,32.6,28.4,87,60,37,29.65,29.48,5,2,0,0.00
2013-2-28,55.8,43.1,30.4,31.1,24.9,20.9,77,51,27,29.73,29.57,3,1,0,0.00
2013-3-1,54.0,38.9,24.8,29.0,23.9,18.9,82,58,31,29.78,29.69,3,0,0,0.00
2013-3-2,49.8,40.6,31.8,35.4,28.3,18.2,81,62,42,29.77,29.65,3,0,0,0.09
2013-3-3,49.8,34.1,22.1,20.1,14.4,6.6,79,49,18,29.85,29.73,5,1,0,0.00
2013-3-4,62.1,41.5,25.0,28.3,10.8,-8.1,66,35,6,29.99,29.85,5,1,0,0.00
2013-3-5,62.4,47.9,38.8,46.2,36.6,26.1,86,66,46,29.91,29.46,4,1,0,0.69
2013-3-6,51.8,40.2,29.5,35.9,21.9,17.1,75,50,30,29.95,29.48,9,3,0,0.00
2013-3-7,60.4,40.4,24.1,28.0,22.2,18.3,82,53,20,30.10,29.96,3,0,0,0.00
2013-3-8,63.0,42.7,25.9,25.4,17.8,-5.2,78,44,6,30.17,30.02,3,1,0,0.00
2013-3-9,68.0,46.1,27.7,32.8,23.1,9.4,79,48,10,30.20,30.07,4,1,0,0.00
2013-3-10,68.9,50.6,34.0,34.5,30.2,22.8,81,52,18,30.14,29.99,4,1,0,0.00
2013-3-11,61.7,57.6,56.3,52.6,51.8,49.4,86,81,64,29.69,29.67,1,0,0,0.54
2013-3-12,68.9,57.9,44.4,54.2,38.2,11.2,88,57,11,29.82,29.57,4,1,0,0.28
2013-3-13,61.7,45.6,33.1,29.4,18.2,1.3,78,42,9,30.00,29.82,9,2,0,0.00
2013-3-14,58.6,40.5,25.5,24.6,12.2,-22.0,70,38,3,30.15,29.98,6,1,0,0.00
2013-3-15,71.4,50.2,28.4,37.7,27.4,16.3,77,47,18,30.05,29.74,6,1,0,0.00
2013-3-16,80.2,66.1,54.0,40.5,37.9,34.3,54,37,21,29.74,29.57,7,2,0,0.00
2013-3-17,82.4,64.8,49.5,45.4,39.6,35.7,65,42,19,29.89,29.68,4,1,0,0.00
2013-3-18,48.9,43.9,41.5,39.9,37.6,35.5,86,78,63,29.94,29.69,3,1,0,0.71
2013-3-19,70.7,53.3,42.3,41.0,24.5,0.2,87,46,6,29.88,29.68,5,1,0,0.00
2013-3-20,62.8,50.3,41.5,20.7,4.8,-14.4,39,18,5,29.94,29.62,4,1,0,0.00
2013-3-21,53.1,40.0,29.5,24.1,7.2,-9.1,58,29,9,29.79,29.65,6,2,0,0.00
2013-3-22,56.8,38.7,23.7,25.3,14.6,5.6,74,43,13,29.93,29.80,3,1,0,0.00
2013-3-23,54.5,45.6,40.1,42.3,35.3,24.4,82,68,46,29.88,29.71,2,0,0,0.05
2013-3-24,46.6,43.1,40.1,40.2,38.4,35.1,87,83,74,29.74,29.38,5,1,0,1.27
2013-3-25,53.1,42.9,35.6,36.5,23.0,11.9,85,51,20,29.75,29.38,8,2,0,0.03
2013-3-26,52.7,39.8,27.9,22.8,19.1,15.2,75,46,23,30.03,29.76,7,2,0,0.00
2013-3-27,62.1,42.8,27.3,21.8,17.3,4.9,75,42,10,30.11,29.99,5,1,0,0.00
2013-3-28,66.4,44.5,25.7,25.4,11.3,-17.5,81,39,3,30.16,30.00,7,1,0,0.00
2013-3-29,68.0,47.2,27.1,40.6,22.3,5.9,79,48,9,30.19,30.03,4,1,0,0.00
2013-3-30,73.2,55.7,45.1,44.2,39.1,31.2,84,59,23,30.05,29.86,4,1,0,0.02
2013-3-31,73.9,59.4,50.2,55.8,49.4,40.9,87,72,42,29.87,29.65,5,1,0,0.42
2013-4-1,78.4,63.7,50.4,53.5,37.1,16.7,86,48,10,29.79,29.66,7,1,0,0.03
2013-4-2,74.5,55.1,38.7,40.3,27.2,2.1,82,45,6,29.98,29.79,5,1,0,0.00
2013-4-3,67.1,55.3,47.7,29.7,17.1,4.2,46,24,9,30.09,29.93,4,1,0,0.00
2013-4-4,51.8,43.5,37.8,35.5,29.7,19.9,84,62,32,30.08,29.81,4,2,0,1.05
2013-4-5,72.0,52.0,35.2,43.0,36.7,30.9,86,61,26,29.88,29.73,3,1,0,0.00
2013-4-6,77.5,55.3,35.4,40.7,30.2,7.3,86,49,7,30.06,29.87,5,1,0,0.00
2013-4-7,77.7,59.4,39.0,45.7,40.0,33.4,83,53,22,30.09,29.91,4,1,0,0.00
2013-4-8,83.7,64.0,48.6,53.4,47.2,41.8,85,60,23,30.00,29.88,4,1,0,0.00
2013-4-9,88.0,69.0,51.6,54.7,50.3,46.3,86,56,25,30.03,29.91,4,1,0,0.00
2013-4-10,89.8,71.8,57.9,58.4,52.9,47.4,85,57,25,29.94,29.75,4,1,0,0.00
2013-4-11,86.5,71.2,58.1,64.1,57.3,52.6,84,64,33,29.79,29.55,4,1,0,0.01
2013-4-12,82.9,70.0,56.7,64.7,49.6,19.7,98,58,10,29.65,29.48,6,2,0,1.22
2013-4-13,84.7,62.8,42.6,45.4,33.6,10.4,85,45,6,29.81,29.65,5,1,0,0.00
2013-4-14,76.8,68.4,58.8,52.0,45.9,39.8,78,46,29,29.89,29.78,3,1,0,0.02
2013-4-15,77.5,63.4,57.2,58.0,54.4,51.8,86,74,43,30.02,29.79,3,0,0,0.06
2013-4-16,83.5,68.6,59.0,59.2,55.3,51.8,84,65,34,30.12,29.99,3,0,0,0.00
2013-4-17,86.2,67.7,57.4,61.7,57.5,52.8,87,73,38,30.07,29.93,4,1,0,0.01
2013-4-18,84.9,70.6,59.2,61.6,58.0,54.1,88,67,36,29.98,29.79,4,1,0,0.00
2013-4-19,77.5,66.1,52.3,64.8,58.5,47.5,86,77,58,29.80,29.58,4,2,0,0.48
2013-4-20,72.1,54.4,38.7,46.9,31.8,15.2,82,49,12,30.08,29.75,4,1,0,0.01
2013-4-21,69.4,53.5,39.4,40.5,36.1,31.7,83,56,28,30.25,30.08,4,1,0,0.00
2013-4-22,69.3,54.6,43.2,38.1,34.8,23.8,78,51,18,30.25,30.03,4,1,0,0.00
2013-4-23,79.2,57.4,39.0,48.5,40.7,33.9,84,58,23,30.11,29.92,3,0,0,0.00
2013-4-24,80.8,62.6,48.4,56.1,50.5,43.7,87,68,36,29.97,29.83,8,1,0,0.00
2013-4-25,80.4,63.7,50.0,56.6,38.3,6.5,86,48,6,30.10,29.88,3,1,0,0.00
2013-4-26,80.4,60.4,40.3,45.6,32.3,15.5,79,43,9,30.26,30.10,4,1,0,0.00
2013-4-27,64.8,57.5,54.5,54.4,50.0,44.7,87,77,62,30.18,30.07,2,0,0,0.68
2013-4-28,55.6,54.6,53.4,55.0,51.9,49.9,98,91,87,30.07,29.87,3,0,0,2.39
2013-4-29,80.6,63.2,55.0,60.9,56.1,52.3,98,80,40,29.89,29.74,4,0,0,0.09
2013-4-30,80.1,63.6,52.2,62.1,55.5,48.1,98,77,43,29.99,29.80,2,0,0,0.00
2013-5-1,70.7,61.6,53.6,55.1,53.1,49.8,88,75,55,30.10,30.00,3,1,0,0.00
2013-5-2,64.0,59.8,57.2,56.4,54.8,53.2,88,83,76,30.11,30.03,2,0,0,0.12
2013-5-3,68.5,60.9,56.1,56.6,53.4,50.9,87,77,60,30.05,29.90,3,1,0,0.06
2013-5-4,59.4,55.8,51.6,51.4,46.9,40.6,87,72,57,29.93,29.76,4,1,0,0.32
2013-5-5,55.4,53.2,51.3,54.8,50.9,48.2,98,92,86,29.80,29.62,4,1,0,4.63
2013-5-6,75.0,61.3,52.5,57.1,50.7,42.3,98,73,34,29.74,29.63,4,1,0,0.01
2013-5-7,76.8,55.8,47.3,51.6,46.9,43.0,87,74,30,29.77,29.68,2,0,0,0.00
2013-5-8,81.3,65.8,49.8,55.2,51.7,45.6,89,64,37,29.84,29.74,5,1,0,0.00
2013-5-9,87.6,67.5,50.7,59.4,52.8,46.9,98,65,27,29.91,29.82,3,0,0,0.00
2013-5-10,86.7,69.4,53.4,63.2,56.7,49.3,90,68,33,29.90,29.76,5,1,0,0.00
2013-5-11,83.1,71.3,60.8,61.3,58.8,54.0,87,67,42,29.79,29.61,4,1,0,0.00
2013-5-12,82.2,66.2,51.3,58.3,41.4,10.9,85,48,8,29.87,29.66,6,1,0,0.00
2013-5-13,79.0,58.2,40.3,40.3,29.1,6.8,85,43,7,30.02,29.87,6,1,0,0.00
2013-5-14,82.4,61.7,40.1,48.4,37.4,29.0,84,46,16,30.10,29.90,4,1,0,0.00
2013-5-15,95.2,72.8,53.2,58.0,52.5,48.2,87,55,23,29.92,29.76,4,1,0,0.00
2013-5-16,87.6,72.6,57.2,60.9,55.7,50.4,84,59,28,29.85,29.77,4,0,0,0.00
2013-5-17,93.7,73.6,57.6,62.1,57.0,52.7,86,61,26,29.92,29.83,3,0,0,0.00
2013-5-18,75.0,68.4,63.5,67.2,62.7,58.2,88,82,72,29.96,29.87,3,0,0,0.76
2013-5-19,82.6,72.0,66.4,67.0,64.6,62.7,98,79,54,29.93,29.82,2,0,0,0.07
2013-5-20,92.1,75.0,66.4,67.9,64.2,61.6,91,72,38,29.94,29.82,3,0,0,0.00
2013-5-21,95.4,76.8,63.7,69.9,63.9,59.8,94,68,32,29.87,29.74,4,0,0,0.00
2013-5-25,68.2,68.2,68.2,46.6,46.6,46.6,46,46,46,30.00,30.00,0,0,0,0.00
2013-5-29,93.0,78.6,66.0,60.0,52.2,-99.9,80,47,25,30.04,29.97,2,-29,0,0.00
2013-5-30,92.7,74.9,61.5,63.5,59.4,50.6,87,63,24,30.10,29.98,3,1,0,0.00
2013-5-31,93.6,77.9,66.6,65.6,62.4,57.4,85,63,30,30.05,29.90,4,1,0,0.00
2013-6-1,95.2,79.0,67.3,65.2,62.6,56.9,86,61,28,29.96,29.81,4,1,0,0.00
2013-6-2,84.4,73.8,68.0,71.6,65.9,62.2,98,77,55,29.85,29.71,3,0,0,1.59
2013-6-3,90.5,74.1,66.6,70.5,67.6,66.0,98,82,47,29.76,29.66,3,0,0,0.02
2013-6-4,92.1,77.1,66.6,68.1,64.8,59.2,98,69,34,29.87,29.75,3,0,0,0.04
2013-6-5,86.7,74.4,68.5,70.3,66.2,63.3,98,77,55,29.92,29.77,3,0,0,1.24
2013-6-6,76.8,72.0,69.3,73.7,70.2,68.7,98,94,82,29.79,29.63,2,0,0,0.65
2013-6-7,84.7,71.7,66.9,70.7,67.7,61.6,98,88,59,29.64,29.49,2,0,0,1.33
2013-6-8,90.7,76.3,67.6,69.6,66.6,62.8,98,76,40,29.89,29.64,4,0,0,0.00
2013-6-9,91.8,74.3,65.8,71.7,67.6,62.1,98,82,47,29.97,29.86,3,0,0,0.65
2013-6-10,82.2,73.5,68.5,73.0,68.7,64.4,98,86,58,29.88,29.72,3,1,0,0.46
2013-6-11,97.7,79.6,68.0,70.5,67.0,58.0,98,70,27,29.82,29.73,4,1,0,0.00
2013-6-12,99.7,80.9,65.3,75.4,68.6,62.0,98,70,38,29.84,29.71,3,0,0,0.00
2013-6-13,97.0,83.0,71.6,71.8,67.6,58.9,87,62,37,29.70,29.50,6,2,0,0.00
2013-6-14,93.2,76.6,62.2,62.2,55.6,43.5,80,53,19,29.86,29.59,4,1,0,0.00
2013-6-15,94.6,74.7,58.3,61.5,57.0,52.3,88,59,25,29.98,29.86,3,0,0,0.00
2013-6-16,94.6,77.6,63.3,66.6,62.2,58.4,88,63,31,29.98,29.83,4,1,0,0.00
2013-6-17,86.9,76.2,69.3,75.1,68.4,65.4,98,78,54,29.86,29.76,4,0,0,2.03
2013-6-18,92.5,75.7,68.7,73.0,70.0,66.9,98,84,47,29.78,29.60,3,1,0,0.24
2013-6-19,87.4,76.1,67.8,69.0,65.9,62.4,98,73,46,29.93,29.71,3,0,0,0.00
2013-6-20,92.5,75.8,65.1,67.8,64.1,59.7,98,70,36,30.05,29.93,3,0,0,0.00
2013-6-21,93.4,75.6,63.1,65.5,61.9,56.6,98,67,33,30.11,29.99,3,0,0,0.00
2013-6-22,95.2,76.2,61.9,68.8,62.7,58.2,89,67,33,30.06,29.93,2,0,0,0.00
2013-6-23,92.8,76.5,65.3,70.6,66.3,61.3,98,73,42,30.04,29.93,5,0,0,1.47
2013-6-24,90.9,76.7,69.1,74.8,70.6,68.5,98,83,53,30.03,29.91,3,0,0,0.46
2013-6-25,95.4,77.9,70.0,71.3,68.4,66.1,98,75,40,29.97,29.83,3,1,0,0.11
2013-6-26,93.9,79.6,69.1,73.0,70.2,65.6,98,76,45,29.87,29.72,3,0,0,0.00
2013-6-27,95.5,80.2,72.9,74.6,71.2,68.3,98,76,45,29.76,29.55,3,1,0,0.60
2013-6-28,99.0,81.5,68.5,73.7,70.3,64.5,98,73,34,29.59,29.40,5,1,0,0.01
2013-6-29,95.9,80.4,70.9,71.4,67.3,61.2,88,67,34,29.51,29.43,3,1,0,0.00
2013-6-30,91.8,77.3,70.5,72.4,67.9,64.2,87,74,42,29.65,29.51,3,0,0,0.03
2013-7-1,87.3,76.2,70.0,72.4,68.5,66.6,98,78,55,29.76,29.62,3,0,0,0.35
2013-7-2,87.4,76.1,69.8,73.0,70.2,66.8,98,83,57,29.95,29.77,4,1,0,0.39
2013-7-3,84.9,75.5,68.2,71.4,69.0,64.2,90,81,61,30.02,29.93,3,1,0,0.24
2013-7-4,88.3,74.0,66.9,76.6,70.2,66.3,98,89,59,30.05,29.94,4,0,0,1.92
2013-7-5,90.9,75.8,70.9,75.5,72.0,70.1,98,89,53,30.06,29.99,2,0,0,2.28
2013-7-6,92.5,77.6,72.1,73.5,71.8,69.4,98,84,49,30.05,29.91,3,0,0,0.29
2013-7-7,89.8,79.0,73.4,75.1,72.6,68.5,98,82,57,29.99,29.87,3,0,0,0.03
2013-7-8,92.3,79.7,72.7,73.2,70.6,69.0,98,76,49,30.01,29.91,2,0,0,0.00
2013-7-9,97.3,81.9,70.0,75.6,70.4,66.3,98,71,41,29.98,29.85,3,1,0,0.00
2013-7-10,91.4,78.3,70.3,74.1,70.6,67.1,98,79,51,29.94,29.75,4,0,0,0.07
2013-7-11,88.7,78.1,72.7,76.0,72.0,67.9,98,83,56,29.78,29.67,4,0,0,0.07
2013-7-12,91.2,76.7,68.7,73.3,69.2,63.7,98,79,54,29.81,29.69,3,0,0,0.00
2013-7-13,84.9,73.3,68.7,70.9,66.9,64.3,89,81,60,29.92,29.82,3,0,0,0.01
2013-7-16,74.7,37.2,74.5,70.4,-14.8,-99.9,87,44,87,29.92,29.91,0,-500,0,0.00
2013-7-17,96.4,78.4,69.6,78.5,70.9,66.6,98,80,49,29.97,29.80,3,0,0,1.82
2013-7-18,96.3,79.4,68.0,76.3,71.1,65.3,98,79,43,29.91,29.80,2,0,0,0.00
2013-7-19,94.6,81.8,70.9,75.4,70.9,67.2,89,72,45,29.87,29.75,3,0,0,0.00
2013-7-20,89.6,78.2,72.9,74.7,71.0,67.5,87,79,58,29.84,29.75,4,0,0,0.00
2013-7-21,93.6,77.6,71.2,76.8,70.3,67.1,89,80,49,29.85,29.76,3,0,0,1.75
2013-7-22,89.4,77.9,71.4,74.5,70.5,67.7,98,79,56,29.84,29.70,3,1,0,0.05
2013-7-23,94.8,80.0,71.1,73.2,69.3,65.0,88,72,41,29.77,29.67,5,1,0,0.00
2013-7-24,95.9,80.7,70.0,73.5,69.5,65.9,88,71,41,29.76,29.67,3,0,0,0.00
2013-7-25,94.5,76.9,68.0,71.5,67.3,64.0,88,74,37,29.96,29.77,3,0,0,0.10
2013-7-26,90.3,77.3,68.0,72.4,67.4,64.0,88,74,45,30.04,29.92,2,0,0,0.01
2013-7-27,87.8,77.0,71.6,74.9,70.7,67.5,87,81,58,29.96,29.81,3,0,0,1.06
2013-7-28,92.8,79.5,71.2,71.5,68.9,66.3,87,72,42,29.95,29.85,3,0,0,0.00
2013-7-29,93.9,76.6,66.6,70.3,66.7,62.6,87,74,39,30.09,29.94,3,0,0,0.00
2013-7-30,91.2,77.5,67.1,71.3,67.6,63.1,87,73,44,30.17,30.05,2,0,0,0.00
2013-7-31,86.2,76.2,72.1,74.1,70.3,68.0,87,82,63,30.08,29.89,2,0,0,0.19
2013-8-1,91.0,78.3,72.0,74.3,70.4,67.9,87,78,53,29.91,29.80,2,0,0,0.01
2013-8-2,93.6,79.0,69.4,72.7,68.8,65.4,87,73,44,29.95,29.85,2,0,0,0.00
2013-8-3,92.7,80.2,71.6,74.4,69.0,65.4,86,71,43,29.95,29.86,4,0,0,0.00
2013-8-4,95.4,80.0,69.3,73.0,68.9,64.9,87,71,44,29.94,29.85,3,0,0,0.00
2013-8-5,89.6,77.5,68.9,71.0,67.1,63.5,86,72,47,30.00,29.89,4,0,0,0.00
2013-8-6,81.7,74.4,69.3,72.4,68.3,64.9,88,82,70,29.98,29.89,3,0,0,2.76
2013-8-7,83.1,76.0,71.6,74.3,70.3,67.2,88,83,72,30.01,29.91,3,0,0,0.09
2013-8-8,91.0,78.9,72.5,74.5,70.8,68.1,88,77,54,29.99,29.91,4,0,0,0.00
2013-8-9,93.6,79.0,72.3,77.4,71.6,67.9,87,79,53,30.00,29.92,7,0,0,0.21
2013-8-10,92.7,80.7,71.6,77.6,71.3,67.2,87,75,53,30.04,29.95,5,0,0,0.19
2013-8-11,94.3,77.8,69.3,75.2,70.2,64.9,87,79,48,30.05,29.95,5,0,0,0.24
2013-8-12,97.0,78.9,70.5,76.8,70.3,66.0,87,77,45,29.99,29.85,2,0,0,0.41
2013-8-13,93.4,79.3,71.4,74.8,70.1,66.3,87,75,49,29.88,29.70,5,1,0,0.24
2013-8-14,83.8,74.1,68.7,70.5,66.5,62.9,87,78,58,29.99,29.78,3,0,0,0.01
2013-8-15,79.0,69.5,63.0,63.7,60.5,56.9,87,74,51,30.08,29.99,3,0,0,0.00
2013-8-16,75.6,67.2,62.4,65.1,61.1,58.5,87,81,64,30.08,30.00,3,0,0,0.07
2013-8-17,73.4,66.4,63.0,63.5,61.3,59.4,88,84,69,30.11,30.04,2,0,0,0.18
2013-8-18,82.0,72.1,65.3,70.7,65.7,61.0,88,81,63,30.13,30.04,2,0,0,0.18
2013-8-19,81.1,72.5,68.0,70.4,66.4,63.3,88,82,67,30.10,29.98,2,0,0,1.16
2013-8-20,83.5,74.4,67.8,70.9,67.3,63.1,88,79,61,30.11,30.02,0,0,0,0.00
2013-8-21,85.6,75.0,70.5,74.7,69.3,65.4,87,83,70,30.14,30.02,3,0,0,0.22
2013-8-22,92.1,78.4,68.9,73.0,68.6,64.2,92,74,50,30.07,29.94,2,0,0,0.00
2013-8-28,93.0,84.1,73.9,73.3,71.0,68.1,86,66,47,29.90,29.82,2,0,0,0.00
2013-8-29,97.0,80.5,68.9,74.6,70.3,65.2,96,74,39,29.85,29.77,3,0,0,0.00
2013-8-30,89.6,79.1,71.6,72.5,69.5,65.6,88,74,50,29.95,29.82,3,0,0,0.00
2013-8-31,94.5,75.7,68.0,74.5,68.9,64.6,97,81,51,29.87,29.78,4,0,0,0.06
2013-9-1,93.0,78.2,68.9,76.1,70.4,65.2,98,79,52,29.82,29.69,3,0,0,0.01
2013-9-2,91.9,80.4,72.5,74.1,71.2,68.7,91,75,49,29.81,29.70,3,0,0,0.00
2013-9-3,92.1,78.0,69.6,70.5,67.8,63.6,98,74,40,29.87,29.73,2,0,0,0.01
2013-9-4,90.0,75.5,66.9,69.2,66.3,62.8,98,76,43,29.99,29.87,2,0,0,0.00
2013-9-5,91.6,75.3,65.5,69.8,66.0,58.9,98,76,39,30.04,29.94,3,0,0,0.00
2013-9-6,88.5,72.9,62.1,65.1,62.5,59.2,98,73,39,30.09,29.96,3,0,0,0.00
2013-9-7,88.2,72.8,60.8,67.9,63.4,59.8,98,76,43,30.04,29.88,3,0,0,0.00
2013-9-8,92.5,74.9,62.4,71.2,65.1,59.6,98,75,37,29.91,29.82,3,0,0,0.00
2013-9-9,92.8,76.4,66.0,72.2,66.1,62.3,96,73,42,30.03,29.89,2,0,0,0.00
2013-9-10,93.4,76.4,64.8,73.0,66.4,61.5,98,74,40,30.15,30.03,2,0,0,0.00
2013-9-11,93.7,77.2,64.9,73.0,65.4,59.6,98,71,33,30.13,29.98,3,0,0,0.00
2013-9-12,95.7,76.6,68.0,72.8,67.3,64.6,98,75,39,30.00,29.75,3,0,0,0.00
2013-9-13,88.3,75.5,64.8,67.9,59.9,51.2,98,62,35,29.80,29.68,6,1,0,0.00
2013-9-14,83.7,67.2,54.9,58.7,54.3,50.4,88,65,37,30.00,29.80,2,0,0,0.00
2013-9-15,85.1,68.6,57.2,66.5,61.0,54.7,98,79,49,30.13,30.00,2,0,0,0.00
2013-9-16,90.3,74.5,63.9,68.3,63.2,57.3,98,72,35,30.05,29.94,3,0,0,0.00
2013-9-17,81.1,71.6,66.6,60.9,57.8,54.8,74,63,44,30.21,30.04,2,0,0,0.00
2013-9-18,82.4,68.8,61.5,60.7,57.0,54.1,82,67,40,30.21,30.06,2,0,0,0.00
2013-9-19,87.1,71.2,58.8,65.0,60.7,55.6,98,72,42,30.10,29.97,2,0,0,0.00
2013-9-20,91.6,73.6,61.2,69.4,62.5,57.9,98,72,38,30.00,29.81,3,0,0,0.00
2013-9-21,76.8,69.3,64.2,71.0,65.7,60.6,98,89,74,29.82,29.55,2,0,0,2.76
2013-9-22,81.3,67.0,57.2,64.2,58.9,50.7,98,79,37,29.81,29.61,3,0,0,0.00
2013-9-23,80.2,66.4,59.2,61.2,58.7,55.8,98,79,49,29.96,29.81,3,0,0,0.00
2013-9-24,81.1,67.3,56.1,63.8,60.3,55.5,98,81,47,29.99,29.83,2,0,0,0.00
2013-9-25,71.6,65.2,63.1,66.5,63.5,60.8,98,95,71,29.85,29.76,2,0,0,1.41
2013-9-26,78.8,65.3,55.8,65.1,59.7,54.9,98,84,52,29.94,29.77,2,0,0,0.01
2013-9-27,79.2,64.0,53.8,60.4,56.1,53.2,98,79,46,30.07,29.95,3,0,0,0.00
2013-9-28,77.0,62.5,53.8,60.0,55.5,52.6,98,81,47,30.17,30.05,2,0,0,0.00
2013-9-29,78.6,62.7,52.0,59.7,55.8,51.5,98,81,44,30.09,29.94,3,0,0,0.00
2013-9-30,79.2,65.1,55.8,60.7,57.2,53.8,98,79,44,30.01,29.89,2,0,0,0.00
2013-10-1,83.1,65.5,52.9,65.2,57.1,52.4,98,79,40,30.06,29.95,3,0,0,0.00
2013-10-2,86.9,68.2,55.6,66.7,60.7,55.0,98,80,42,30.07,29.96,2,0,0,0.00
2013-10-3,87.4,69.8,58.3,69.4,61.4,57.7,98,78,42,30.04,29.96,3,0,0,0.00
2013-10-4,87.6,70.3,57.9,67.4,62.5,57.3,98,80,43,30.06,29.97,2,0,0,0.00
2013-10-5,88.2,71.3,59.4,70.8,63.2,58.8,98,79,43,30.05,29.93,2,0,0,0.00
2013-10-6,86.2,70.5,59.7,70.6,63.3,59.1,98,81,46,29.95,29.77,2,0,0,0.00
2013-10-7,77.9,69.8,60.3,73.2,65.4,54.9,98,86,66,29.88,29.71,3,0,0,0.93
2013-10-8,72.5,63.8,58.5,55.5,51.4,46.6,87,65,47,30.10,29.88,4,1,0,0.00
2013-10-9,75.2,60.8,50.7,51.1,46.3,42.1,88,62,32,30.14,30.01,3,0,0,0.00
2013-10-10,78.6,61.5,46.0,60.2,52.1,44.3,98,75,39,30.04,29.87,4,0,0,0.00
2013-10-11,82.6,65.9,54.5,59.6,56.5,53.9,98,76,39,29.92,29.82,4,0,0,0.00
2013-10-12,82.2,65.7,53.4,64.9,59.0,52.8,98,82,44,29.99,29.86,2,0,0,0.00
2013-10-13,78.3,68.6,63.7,64.7,62.7,60.4,98,83,58,30.11,29.98,2,0,0,0.00
2013-10-14,74.8,67.3,63.5,63.1,60.8,59.2,95,80,63,30.14,30.04,2,0,0,0.00
2013-10-15,75.7,65.0,56.8,60.0,57.3,54.9,98,77,52,30.09,29.95,2,0,0,0.00
2013-10-16,77.9,63.7,52.3,63.2,57.2,51.8,98,82,51,29.99,29.85,3,0,0,0.00
2013-10-17,72.0,65.2,60.3,66.7,63.3,58.6,98,94,73,29.86,29.76,2,0,0,0.25
2013-10-18,74.3,63.2,54.9,63.4,59.0,54.3,98,88,59,29.93,29.79,2,0,0,0.00
2013-10-19,66.7,60.6,51.3,63.8,58.4,50.8,98,93,72,29.87,29.76,2,0,0,0.01
2013-10-20,68.2,53.4,42.1,50.6,46.9,41.6,98,82,45,29.99,29.82,2,0,0,0.00
2013-10-21,71.1,55.3,42.8,55.9,49.4,42.3,98,83,51,30.07,29.90,3,0,0,0.00
2013-10-22,72.5,61.1,54.3,59.8,55.9,53.1,98,85,55,29.92,29.69,4,0,0,0.00
2013-10-23,68.2,53.7,40.8,53.4,40.7,28.2,98,67,26,29.95,29.64,7,2,0,0.00
2013-10-24,63.0,47.0,32.5,45.1,36.4,29.1,98,70,39,30.09,29.95,4,0,0,0.00
2013-10-25,55.6,42.9,34.3,42.1,32.9,25.3,98,73,32,30.29,30.07,4,0,0,0.00
2013-10-26,58.8,42.4,27.9,38.3,31.6,24.3,98,69,37,30.29,29.98,4,0,0,0.00
2013-10-27,69.4,52.7,37.9,50.7,43.9,35.5,98,75,44,30.05,29.96,3,0,0,0.00
2013-10-28,72.9,57.5,47.7,59.3,52.3,47.2,98,85,50,30.17,30.01,2,0,0,0.01
2013-10-29,74.7,58.8,47.5,57.0,52.5,47.0,98,83,46,30.24,30.14,2,0,0,0.00
2013-10-30,79.5,62.4,51.8,60.9,55.1,51.3,98,80,44,30.20,30.06,5,0,0,0.00
2013-10-31,74.8,63.2,52.7,63.7,57.9,52.2,98,84,59,30.08,29.78,2,0,0,0.00
2013-11-1,69.1,65.3,58.3,66.9,61.9,57.7,98,89,74,29.78,29.58,4,1,0,0.18
2013-11-2,70.0,54.3,43.0,57.1,46.9,39.9,98,80,34,29.90,29.62,7,1,0,0.00
2013-11-3,63.7,47.2,36.1,44.5,38.7,34.6,98,77,35,30.24,29.89,3,0,0,0.00
2013-11-4,61.2,45.5,35.8,40.1,36.7,33.5,98,75,37,30.44,30.27,2,0,0,0.00
2013-11-5,62.1,48.0,34.3,48.5,40.0,31.4,98,76,49,30.47,30.32,4,0,0,0.00
2013-11-6,70.5,58.0,49.8,55.7,52.1,48.4,98,82,56,30.32,30.03,3,0,0,0.00
2013-11-7,72.1,54.6,40.3,61.1,45.1,27.2,98,75,30,30.06,29.87,5,1,0,0.00
2013-11-8,62.2,46.2,33.8,34.3,28.1,14.2,86,57,16,30.23,30.05,5,0,0,0.00
2013-11-9,65.1,44.4,29.5,44.3,32.9,26.3,98,69,26,30.30,30.11,2,0,0,0.00
2013-11-10,73.8,52.9,39.6,41.9,35.2,21.4,98,60,15,30.16,30.03,4,0,0,0.00
2013-11-11,63.3,45.9,32.5,37.2,30.5,22.5,98,60,22,30.28,30.06,3,0,0,0.00
2013-11-12,66.9,44.4,28.2,44.9,29.4,13.5,98,61,26,30.37,29.98,8,1,0,0.00
2013-11-13,50.9,33.6,21.4,21.2,14.5,3.4,80,51,14,30.48,30.37,4,0,0,0.00
2013-11-14,62.6,36.8,20.8,28.0,18.1,3.8,87,56,10,30.40,30.23,4,0,0,0.00
2013-11-15,61.0,44.2,27.1,47.2,34.4,22.3,98,72,38,30.26,30.10,1,0,0,0.17
2013-11-16,68.0,55.9,47.1,56.1,52.1,46.6,98,88,64,30.20,30.08,2,0,0,0.00
2013-11-17,70.9,60.6,54.9,63.4,58.0,54.3,98,92,66,30.11,29.81,2,0,0,0.58
2013-11-18,76.3,61.4,43.5,63.3,48.3,30.2,98,67,31,29.90,29.75,9,1,0,0.13
2013-11-19,59.7,45.2,33.6,37.2,29.8,21.1,94,59,23,30.15,29.89,3,0,0,0.00
2013-11-20,55.6,43.2,32.5,34.7,30.9,27.8,84,63,37,30.34,30.15,4,1,0,0.00
2013-11-21,56.3,49.8,45.7,49.5,40.2,32.4,98,71,57,30.39,30.28,3,0,0,0.07
2013-11-22,64.9,56.5,49.8,58.6,53.7,49.3,98,91,76,30.30,30.03,2,0,0,0.01
2013-11-23,64.0,55.2,40.1,59.3,45.0,22.9,98,72,36,30.11,29.98,5,0,0,0.00
2013-11-24,47.5,34.6,24.4,24.0,11.2,-8.2,75,43,10,30.43,30.11,4,1,0,0.00
2013-11-25,46.6,32.9,19.8,18.3,12.7,-0.6,81,49,14,30.48,30.23,2,0,0,0.00
2013-11-26,44.8,38.3,33.1,44.3,34.9,16.7,98,89,39,30.21,29.51,2,0,0,3.47
2013-11-27,45.9,38.4,25.7,45.4,30.9,16.0,98,76,45,30.12,29.42,9,2,0,0.26
2013-11-28,48.6,30.2,18.7,23.5,19.3,13.8,85,67,31,30.40,30.13,3,0,0,0.00
2013-11-29,55.8,35.0,22.6,30.9,24.0,17.9,87,68,28,30.50,30.37,2,0,0,0.00
2013-11-30,50.5,34.9,27.0,26.0,24.1,21.0,86,68,32,30.57,30.27,3,0,0,0.00
2013-12-1,56.3,40.4,29.5,37.3,30.4,25.0,86,69,43,30.27,29.93,3,0,0,0.00
2013-12-2,62.4,43.8,28.6,41.7,34.5,25.0,98,72,39,29.93,29.72,2,0,0,0.00
2013-12-3,62.4,53.3,46.9,52.7,47.7,41.1,96,82,64,29.87,29.76,2,0,0,0.14
2013-12-4,62.8,57.7,53.4,60.4,55.9,50.2,98,94,83,29.98,29.85,2,0,0,0.10
2013-12-5,68.4,64.1,60.3,67.4,62.7,59.7,98,95,84,30.02,29.91,4,1,0,0.23
2013-12-6,77.7,69.5,65.8,66.5,63.5,60.6,98,82,58,29.97,29.86,6,2,0,0.07
2013-12-7,68.7,57.4,49.3,66.5,51.7,41.7,98,82,67,30.29,29.89,3,1,0,0.16
2013-12-8,49.1,40.7,36.3,41.9,38.2,35.5,98,91,73,30.31,30.16,4,1,0,0.15
2013-12-9,45.7,41.2,36.1,45.2,40.7,35.6,98,98,98,30.17,29.94,2,0,0,0.51
2013-12-10,55.4,45.2,27.5,53.2,37.8,22.7,98,78,42,30.23,29.81,6,1,0,0.20
2013-12-11,53.4,34.2,22.6,30.0,23.2,18.2,89,68,29,30.37,30.21,3,0,0,0.00
2013-12-12,52.5,33.4,22.8,29.6,14.3,-46.1,96,60,1,30.34,30.20,4,0,0,0.00
2013-12-13,54.9,35.7,20.7,32.3,23.3,15.6,86,64,30,30.31,30.15,3,0,0,0.00
2013-12-14,45.0,40.8,38.1,41.2,37.5,32.3,98,88,73,30.15,29.71,4,0,0,1.44
2013-12-15,52.2,43.3,35.6,44.5,34.1,25.7,98,73,41,30.01,29.66,7,2,0,0.00
2013-12-16,61.0,41.0,26.1,35.1,28.1,21.9,98,63,31,30.10,29.99,3,1,0,0.00
2013-12-17,63.9,46.8,31.5,35.7,31.6,27.4,88,59,31,30.06,29.86,5,1,0,0.00
2013-12-18,55.8,42.1,28.8,27.1,16.6,-6.0,80,41,8,30.20,29.97,9,2,0,0.00
2013-12-19,63.5,41.0,25.2,31.1,22.8,7.5,93,57,11,30.25,30.13,4,0,0,0.00
2013-12-20,61.5,46.2,33.4,46.2,38.5,29.1,88,76,56,30.17,30.06,2,0,0,0.00
2013-12-21,68.2,55.6,43.5,62.5,52.5,42.0,98,90,72,30.06,29.92,2,0,0,0.08
2013-12-22,71.8,65.3,61.9,67.4,63.6,61.3,98,95,80,29.97,29.88,5,1,0,1.86
2013-12-23,63.7,56.3,44.6,63.1,53.3,37.5,98,90,74,30.07,29.88,2,1,0,1.25
2013-12-24,48.4,37.9,26.1,37.3,25.3,13.1,87,63,28,30.33,30.06,5,1,0,0.00
2013-12-25,43.0,30.0,21.0,24.5,15.1,7.1,79,57,25,30.46,30.29,3,0,0,0.00
2013-12-26,55.9,36.9,26.2,28.5,23.8,19.3,86,63,26,30.29,30.15,3,0,0,0.00
2013-12-27,54.3,34.8,25.0,30.3,23.4,18.3,88,68,24,30.41,30.25,2,0,0,0.00
2013-12-28,52.7,37.6,23.5,39.3,29.1,19.6,88,74,39,30.34,30.03,2,0,0,0.29
2013-12-29,55.6,46.5,39.9,49.3,43.6,36.9,98,90,76,30.02,29.71,4,0,0,1.52
2013-12-30,56.8,43.8,32.5,47.8,38.4,29.3,98,82,60,30.02,29.84,2,0,0,0.00
2013-12-31,54.1,40.7,30.4,40.1,27.5,19.2,87,63,27,30.27,30.02,7,1,0,0.00
2014-1-1,52.5,38.2,28.8,32.8,28.6,25.2,87,71,36,30.32,30.05,2,0,0,0.00
2014-1-2,47.1,42.8,30.2,46.6,38.6,16.0,98,85,54,30.04,29.56,5,1,0,0.21